STARLINK-32892, 62893

Orbit data source: Space-Track

STARLINK-32892, 62893 is a payload satellite owned by SpaceX/Seattle (US) in LEO that was launched on Tue, 04 Feb 2025 UTC via an FALCON 9 launch vehicle from the Air Force Eastern Test Range (AFETR). Payload-class satellites include a variety of spacecraft equipped with specific instruments for various scientific and technological missions. These include communications satellites like Starlink; space stations such as the ISS; scientific satellites like the Hubble; Earth observation satellites from companies like Planet Labs, Umbra, and HawkEye 360; GPS; miniature CubeSats for education and research; and military/defense satellites.

Loading next visibility...
Identifier
62893, 2025-024Q
Orbit
LEO
Last TLE update
6 hours ago
Origin
Manufacturer
SpaceX/Seattle
Mission
Operational Commercial Communications
Bus & Motor
STARLINK V2M, Unknown motor
Mass
730 kg wet, ~700 kg dry
Launch date (UTC)
2025-02-04 (5 months ago)
Launch vehicle
FALCON 9
Launch site
Air Force Eastern Test Range (AFETR)
Object type
Payload
Rocket body
Debris
Shape & HBR
Box + 2 Pan, 29 m
Radar Cross Section
33.884 m², Large (>1 m²)

Expand to show TLE details & history

TLE from 6 hours ago
0 STARLINK-32892
1 62893U 25024Q   25183.58519753  .00019318  00000-0  70971-3 0  9992
2 62893  43.0002 298.0006 0001237 279.7727  80.2985 15.27579532 24013
Epoch: 2025-07-02T14:02Z
TLE epoch observation values (Epoch: 2025-07-02T14:02:41.066Z)
Latitude
-0.00002°
Longitude
166.46528°
Altitude
482.683 km
Speed
7.626 km/s
True Right ascension
19h 52m 00s
True Declination
0° 00' 00"
Sunlit
Object was in full shadow at epoch
Visualization orbit readout
Latitude
-33.32156°
Longitude
120.52726°
Altitude
491.579 km
Speed
7.62 km/s
Apparent Right ascension
18h 11m 11s
Apparent Declination
-38° 31' 12"
Sunlit
Object is in full shadow
Visualization observer readout
Local Sidereal Time
07:49:19
Azimuth
93.692° ESE
Elevation
-71°
Doppler factor
1
Orbital elements
Apogee altitude
485.845 km
Perigee altitude
484.147 km
Semi-major axis
6,863.133 km
Eccentricity
0.00012
Inclination
43.0002°
RAAN
298.0006°
Arg. of periapsis
279.7727°
True anomaly
Unknown
Mean anomaly
80.2985°
Eccentric anomaly
Unknown
Mean motion
3.81733 °/min
Orbital period
94.31 mins
BSTAR
0.00070971
Loading maneuver chart data...
Loading SW <> Apogee altitude chart data...
Loading historical data...
Loading historical data...
Loading historical data...
Loading historical data...
Loading historical data...
Loading historical data...
Loading historical data...

STARLINK-32892 Visibility forecast

Observer location: undefined°, undefined°

Span
Click to sort rows by Start time (UTC) header in descending order
Start Az.
Max El. time (UTC)
Max El. Az.
Max El.
End time (UTC)
End Az.
6 mins2025-07-03 10:38:20.936Z210.2° SW2025-07-03 10:41:20.936Z151.004° SSE27.44°2025-07-03 10:44:20.936Z88.5° E
5 mins2025-07-03 12:18:20.936Z264.477° W2025-07-03 12:20:20.936Z12.185° NNE43.588°2025-07-03 12:23:20.936Z69.984° E
5 mins2025-07-03 13:57:20.936Z295.196° NW2025-07-03 13:59:20.936Z1.22° NNE38.278°2025-07-03 14:02:20.936Z77.859° E
5 mins2025-07-03 15:36:20.936Z284.951° WNW2025-07-03 15:38:20.936Z232.468° WSW44.371°2025-07-03 15:41:20.936Z114.968° SE
|